Showing default

KANOPUS-V 5, 43876

Orbit data source: Space-Track

KANOPUS-V 5, 43876 is a payload satellite owned by VNIIEM (CIS) in SSO that was launched on Thu, 27 Dec 2018 UTC via a SOYUZ-2-1A launch vehicle from the Vostochny Cosmodrome (VOSTO). Payload-class satellites include a variety of spacecraft equipped with specific instruments for various scientific and technological missions. These include communications satellites like Starlink; space stations such as the ISS; scientific satellites like the Hubble; Earth observation satellites from companies like Planet Labs, Umbra, and HawkEye 360; GPS; miniature CubeSats for education and research; and military/defense satellites.

Loading next visibility...
Identifier
43876, 2018-111A
Orbit
SSO
Country
Flag of CISCIS
Related business
Manufacturer
VNIIEM
Mission
Operational Civil Imaging
Bus & Motor
KANOPUS, Unknown motor
Mass
473 kg wet, 473 kg dry
Launch date (UTC)
2018-12-27 (7 years ago)
Launch vehicle
SOYUZ-2-1A
Launch site
Vostochny Cosmodrome (VOSTO)
Object type
Payload
Rocket body
Debris
Shape & HBR
Box + 2 Pan, 3.0 m
Radar Cross Section
1.665 m², Large (>1 m²)

Expand to show TLE details & history
Last TLE update: 17 hours ago

TLE from 17 hours ago
0 KANOPUS-V 5
1 43876U 18111A   25350.34978532  .00002842  00000-0  12175-3 0  9991
2 43876  97.3688 254.4013 0001999  83.2421 276.9044 15.23578933386957
Epoch: 2025-12-16T08:23Z
TLE epoch observation values (Epoch: 2025-12-16T08:23:41.451Z)
Latitude
0.00001°
Longitude
43.24332°
Altitude
497.987 km
Speed
7.616 km/s
True Right ascension
16h 57m 36s
True Declination
0° 00' 00"
Sunlit
Object was in daylight at epoch
Visualization orbit readout
Latitude
Unknown
Longitude
Unknown
Altitude
Unknown
Speed
Unknown
Apparent Right ascension
Unknown
Apparent Declination
Unknown
Sunlit
N/A
Visualization observer readout
Local Sidereal Time
23:53:15
Azimuth
Unknown
Elevation
Unknown
Doppler factor
Unknown
Orbital elements
Apogee altitude
493.389 km
Perigee altitude
490.642 km
Semi-major axis
6,870.152 km
Eccentricity
0.0002
Inclination
97.3688°
RAAN
254.4013°
Arg. of periapsis
83.2421°
True anomaly
276.88166°
Mean anomaly
276.9044°
Eccentric anomaly
276.89303°
Mean motion
3.81148 °/min
Orbital period
94.45 mins
BSTAR
0.00012175
Loading maneuver chart data...
Computing Atmospheric mass density...
Loading historical data...
Loading historical data...
Loading historical data...
Loading historical data...
Loading historical data...
Loading historical data...
Loading historical data...

Documentation

Showing up to 5 results
|